| time (UTC) | temp C | wind direction | speed KPH | gust KPH | rain 1hr cm | rain 24hr cm | rain mn cm | humidity % | barometer mb |
| 20260507003054 | 17 | 141 | 0.0 | 1.6 | 0.00 | 0.00 | 0.00 | 83 | 1008.4 |
| 20260507001526 | 17 | 139 | 0.0 | 1.6 | 0.00 | 0.00 | 0.00 | 82 | 1008.3 |
| 20260507000109 | 17 | 143 | 0.0 | 1.6 | 0.00 | 0.00 | 0.00 | 82 | 1008.3 |
| 20260506234538 | 17 | 172 | 0.0 | 3.2 | 0.00 | 0.00 | 0.00 | 81 | 1008.5 |
| 20260506233001 | 18 | 112 | 0.0 | 1.6 | 0.00 | 0.00 | 0.00 | 79 | 1008.3 |
| 20260506231555 | 18 | 171 | 0.0 | 4.8 | 0.00 | 0.00 | 0.00 | 79 | 1008.4 |
| 20260506230013 | 17 | 107 | 0.0 | 4.8 | 0.00 | 0.00 | 0.00 | 80 | 1008.5 |
| 20260506224600 | 18 | 138 | 0.0 | 6.4 | 0.00 | 0.00 | 0.00 | 79 | 1008.2 |
| 20260506223045 | 19 | 52 | 0.0 | 4.8 | 0.00 | 0.00 | 0.00 | 76 | 1008.1 |
| 20260506221502 | 19 | 72 | 0.0 | 9.7 | 0.00 | 0.00 | 0.00 | 76 | 1008.3 |
| 20260506220045 | 19 | 148 | 3.2 | 12.9 | 0.00 | 0.00 | 0.00 | 76 | 1008.3 |
| 20260506214514 | 19 | 92 | 3.2 | 11.3 | 0.00 | 0.00 | 0.00 | 75 | 1008.2 |
| 20260506213127 | 19 | 93 | 3.2 | 12.9 | 0.00 | 0.00 | 0.00 | 75 | 1007.8 |
| 20260506211533 | 20 | 71 | 1.6 | 11.3 | 0.00 | 0.00 | 0.00 | 75 | 1007.9 |
| 20260506210110 | 20 | 123 | 3.2 | 9.7 | 0.00 | 0.00 | 0.00 | 75 | 1007.7 |
| 20260506204545 | 19 | 72 | 3.2 | 11.3 | 0.00 | 0.00 | 0.00 | 76 | 1007.6 |
| 20260506203014 | 18 | 148 | 3.2 | 14.5 | 0.00 | 0.00 | 0.00 | 76 | 1007.7 |
| 20260506201559 | 18 | 105 | 1.6 | 9.7 | 0.00 | 0.00 | 0.00 | 76 | 1007.7 |
| 20260506200016 | 19 | 94 | 4.8 | 14.5 | 0.00 | 0.00 | 0.00 | 76 | 1007.9 |
| 20260506194619 | 19 | 78 | 4.8 | 14.5 | 0.00 | 0.00 | 0.00 | 76 | 1007.9 |
| 20260506193029 | 19 | 129 | 3.2 | 12.9 | 0.00 | 0.00 | 0.00 | 77 | 1008.6 |
| 20260506191502 | 19 | 98 | 4.8 | 14.5 | 0.00 | 0.00 | 0.00 | 77 | 1008.6 |
| 20260506190045 | 18 | 141 | 1.6 | 12.9 | 0.00 | 0.00 | 0.00 | 78 | 1008.7 |
| 20260506184519 | 18 | 110 | 4.8 | 14.5 | 0.00 | 0.00 | 0.00 | 79 | 1008.9 |
| 20260506183105 | 17 | 104 | 3.2 | 14.5 | 0.00 | 0.00 | 0.00 | 82 | 1009.1 |
| 20260506181538 | 16 | 63 | 3.2 | 14.5 | 0.00 | 0.00 | 0.00 | 83 | 1009.3 |
| 20260506180010 | 16 | 146 | 4.8 | 16.1 | 0.00 | 0.00 | 0.00 | 83 | 1009.3 |
| 20260506174545 | 16 | 155 | 1.6 | 14.5 | 0.00 | 0.00 | 0.00 | 84 | 1009.5 |
| 20260506173012 | 16 | 204 | 3.2 | 12.9 | 0.00 | 0.00 | 0.00 | 83 | 1009.4 |
| 20260506171554 | 16 | 128 | 6.4 | 14.5 | 0.00 | 0.00 | 0.00 | 81 | 1009.8 |
| 20260506170018 | 16 | 124 | 4.8 | 14.5 | 0.00 | 0.00 | 0.00 | 81 | 1010.0 |
| 20260506164603 | 16 | 94 | 6.4 | 16.1 | 0.00 | 0.00 | 0.00 | 81 | 1010.5 |
| 20260506163041 | 16 | 75 | 4.8 | 12.9 | 0.00 | 0.00 | 0.00 | 81 | 1010.8 |
| 20260506161514 | 16 | 88 | 4.8 | 9.7 | 0.00 | 0.00 | 0.00 | 81 | 1010.7 |
| 20260506160023 | 16 | 58 | 3.2 | 14.5 | 0.00 | 0.00 | 0.00 | 81 | 1010.9 |
| 20260506154522 | 16 | 196 | 4.8 | 17.7 | 0.00 | 0.00 | 0.00 | 81 | 1011.1 |
| 20260506153021 | 17 | 98 | 4.8 | 17.7 | 0.00 | 0.00 | 0.00 | 78 | 1011.3 |
| 20260506151502 | 17 | 70 | 4.8 | 16.1 | 0.00 | 0.00 | 0.00 | 77 | 1011.1 |
| 20260506150050 | 18 | 91 | 4.8 | 14.5 | 0.00 | 0.00 | 0.00 | 76 | 1011.1 |
| 20260506144519 | 18 | 98 | 4.8 | 17.7 | 0.00 | 0.00 | 0.00 | 77 | 1011.3 |
| 20260506143109 | 18 | 162 | 6.4 | 16.1 | 0.00 | 0.00 | 0.00 | 76 | 1011.4 |
| 20260506141537 | 17 | 56 | 3.2 | 12.9 | 0.00 | 0.00 | 0.00 | 78 | 1011.4 |
| 20260506140009 | 17 | 63 | 4.8 | 14.5 | 0.00 | 0.00 | 0.00 | 77 | 1011.3 |
| 20260506134550 | 17 | 196 | 4.8 | 14.5 | 0.00 | 0.00 | 0.00 | 79 | 1011.5 |
| 20260506133024 | 17 | 160 | 4.8 | 12.9 | 0.00 | 0.00 | 0.00 | 79 | 1011.6 |
| 20260506131603 | 17 | 109 | 3.2 | 14.5 | 0.00 | 0.00 | 0.00 | 79 | 1011.6 |
| 20260506130034 | 17 | 112 | 4.8 | 16.1 | 0.00 | 0.00 | 0.00 | 79 | 1011.9 |
| 20260506124609 | 17 | 152 | 6.4 | 19.3 | 0.00 | 0.00 | 0.00 | 78 | 1011.5 |
| 20260506123035 | 16 | 86 | 4.8 | 16.1 | 0.00 | 0.00 | 0.00 | 81 | 1011.6 |
| 20260506121513 | 15 | 130 | 6.4 | 14.5 | 0.00 | 0.00 | 0.00 | 85 | 1011.5 |
| 20260506120048 | 15 | 59 | 3.2 | 19.3 | 0.00 | 0.00 | 0.00 | 85 | 1011.3 |
| 20260506114517 | 15 | 15 | 3.2 | 11.3 | 0.00 | 0.00 | 0.00 | 88 | 1011.4 |
| 20260506113059 | 15 | 114 | 4.8 | 12.9 | 0.00 | 0.00 | 0.00 | 88 | 1011.4 |
| 20260506111528 | 14 | 163 | 3.2 | 11.3 | 0.00 | 0.00 | 0.00 | 89 | 1011.3 |
| 20260506110108 | 14 | 79 | 3.2 | 14.5 | 0.00 | 0.00 | 0.00 | 90 | 1011.6 |
| 20260506104539 | 14 | 176 | 6.4 | 16.1 | 0.00 | 0.00 | 0.00 | 90 | 1011.6 |
| 20260506103010 | 13 | 55 | 4.8 | 12.9 | 0.00 | 0.00 | 0.00 | 90 | 1011.5 |
| 20260506101538 | 13 | 141 | 3.2 | 12.9 | 0.00 | 0.00 | 0.00 | 90 | 1011.3 |
| 20260506100013 | 13 | 69 | 4.8 | 17.7 | 0.00 | 0.00 | 0.00 | 90 | 1011.3 |
| 20260506094604 | 13 | 111 | 4.8 | 12.9 | 0.00 | 0.00 | 0.00 | 90 | 1011.3 |
| 20260506093023 | 13 | 117 | 3.2 | 14.5 | 0.00 | 0.00 | 0.00 | 90 | 1011.3 |
| 20260506091608 | 13 | 143 | 4.8 | 14.5 | 0.00 | 0.00 | 0.00 | 90 | 1011.4 |
| 20260506090046 | 13 | 98 | 4.8 | 22.5 | 0.00 | 0.00 | 0.00 | 90 | 1011.5 |
| 20260506084502 | 13 | 127 | 4.8 | 16.1 | 0.00 | 0.00 | 0.00 | 90 | 1011.7 |
| 20260506083043 | 13 | 77 | 4.8 | 14.5 | 0.00 | 0.00 | 0.00 | 90 | 1011.8 |
| 20260506081512 | 13 | 152 | 4.8 | 14.5 | 0.00 | 0.00 | 0.00 | 89 | 1011.7 |
| 20260506073106 | 14 | 134 | 4.8 | 16.1 | 0.00 | 0.00 | 0.00 | 89 | 1011.6 |
| 20260506071539 | 14 | 87 | 6.4 | 16.1 | 0.00 | 0.00 | 0.00 | 88 | 1011.6 |
| 20260506061601 | 14 | 120 | 6.4 | 14.5 | 0.00 | 0.00 | 0.00 | 87 | 1011.7 |
| 20260506044521 | 15 | 73 | 6.4 | 19.3 | 0.00 | 0.00 | 0.00 | 83 | 1012.4 |
| 20260506043104 | 15 | 16 | 4.8 | 16.1 | 0.00 | 0.00 | 0.00 | 83 | 1012.4 |
| 20260506041526 | 15 | 68 | 4.8 | 17.7 | 0.00 | 0.00 | 0.00 | 83 | 1012.3 |
| 20260506040108 | 15 | 141 | 8.0 | 17.7 | 0.00 | 0.00 | 0.00 | 83 | 1012.3 |
| 20260506034541 | 15 | 143 | 6.4 | 19.3 | 0.00 | 0.00 | 0.00 | 82 | 1012.3 |
| 20260506033006 | 15 | 169 | 9.7 | 19.3 | 0.00 | 0.00 | 0.00 | 82 | 1012.5 |
| 20260506031551 | 15 | 151 | 8.0 | 17.7 | 0.00 | 0.00 | 0.00 | 82 | 1012.3 |
| 20260506030020 | 15 | 113 | 6.4 | 17.7 | 0.00 | 0.00 | 0.00 | 81 | 1012.4 |
| 20260506024600 | 15 | 74 | 8.0 | 20.9 | 0.00 | 0.00 | 0.00 | 81 | 1012.6 |
| 20260506023026 | 15 | 51 | 4.8 | 16.1 | 0.00 | 0.00 | 0.00 | 80 | 1012.5 |
| 20260506021609 | 15 | 64 | 8.0 | 17.7 | 0.00 | 0.00 | 0.00 | 80 | 1012.6 |
| 20260506020039 | 15 | 179 | 6.4 | 19.3 | 0.00 | 0.00 | 0.00 | 80 | 1012.6 |
| 20260506014507 | 15 | 87 | 8.0 | 19.3 | 0.00 | 0.00 | 0.00 | 80 | 1012.3 |
| 20260506013054 | 15 | 72 | 4.8 | 19.3 | 0.00 | 0.00 | 0.00 | 80 | 1012.3 |
| 20260506011508 | 15 | 51 | 8.0 | 19.3 | 0.00 | 0.00 | 0.00 | 80 | 1012.2 |
| 20260506010037 | 15 | 74 | 8.0 | 16.1 | 0.00 | 0.00 | 0.00 | 81 | 1012.0 |
| 20260506004506 | 15 | 56 | 6.4 | 17.7 | 0.00 | 0.00 | 0.00 | 81 | 1011.8 |